Location: Oroua River
(40.4333°S, 175.4333°E)
Time: 14:59:23
(UTC+00:00)

SAR-Lupe-2 - Pass Details

Date: 03 February 2023
Orbit: 481 x 482 km, 98.1° (Epoch: 05 September)

Event Time Altitude Azimuth Distance (km) Brightness Sun altitude
Exits shadow 15:44:37 36° 270° (W) 787 4.2 -17.7°
Drops below altitude 10° 15:47:47 10° 210° (SSW) 1,692 6.4 -17.2°
Sets 15:50:00 0° 201° (SSW) 2,583 7.5 -16.9°
